[[{"header":{"parameterUnit":"m.s-1","parameterCategory":1,"la1":30.2992,"la2":30.254,"lo1":-89.0895,"lo2":-89.0443,"dy":0.0025,"dx":0.0025,"nx":19,"ny":19,"refTime":"2026-05-10T21:00:00:Z","depth":0,"parameterNumber":2,"parameterNumberName":"U-component_of_WINDS"},"data":[0,0,0,-0.2447,-0.2446,-0.2385,-0.2384,-0.2318,-0.2318,0,0,0,0,0,0,0,0,0,0,0,-0.2473,-0.2473,-0.2447,-0.2446,-0.2385,-0.2384,-0.2318,-0.2318,0,0,0,0,0,0,0,0,0,0,0,-0.2473,-0.2473,-0.2473,-0.2446,-0.2385,-0.2384,-0.2318,-0.236,0,0,0,0,0,0,0,0,0,0,-0.2418,-0.245,-0.2473,-0.2473,-0.2446,-0.2385,-0.2384,-0.2362,-0.2358,-0.2351,0,-0.2348,0,-0.2332,-0.2314,-0.2314,0,0,0,-0.244,-0.2453,-0.243,-0.2473,-0.2445,-0.2385,-0.2411,-0.2359,-0.2354,-0.2346,-0.2347,-0.2345,-0.2331,-0.2314,-0.2313,-0.23,-0.2301,0,0,-0.2443,-0.2466,-0.2433,-0.2427,-0.2438,-0.2413,-0.2409,-0.2356,-0.2359,-0.2347,-0.2343,-0.233,-0.2313,-0.2313,-0.23,-0.23,0,0,0,-0.2457,-0.2469,-0.2446,-0.243,-0.2418,-0.2411,-0.2407,-0.2362,-0.2352,-0.2342,-0.2329,-0.2313,-0.2312,-0.23,-0.23,-0.2334,0,0,0,-0.2459,-0.2477,-0.2448,-0.2462,-0.2419,-0.2389,-0.2414,-0.2356,-0.2349,-0.233,-0.2313,-0.2312,-0.23,-0.23,-0.2333,-0.2347,0,0,0,-0.2475,-0.2479,-0.2473,-0.2463,-0.2438,-0.2389,-0.2377,-0.2354,-0.2342,-0.2314,-0.2312,-0.2299,-0.23,-0.2331,-0.2344,-0.2351,0,0,0,-0.2498,-0.2503,-0.2474,-0.2474,-0.2438,-0.2411,-0.2377,-0.2355,-0.2335,-0.2313,-0.23,-0.23,-0.2331,-0.2343,-0.2349,-0.236,-0.2367,0,0,-0.2517,-0.2506,-0.2505,-0.2477,-0.2461,-0.2419,-0.2408,-0.2367,-0.2343,-0.2316,-0.2315,-0.2333,-0.2344,-0.235,-0.2396,-0.2401,0,0,0,-0.2519,-0.2518,-0.2509,-0.2491,-0.2461,-0.2437,-0.2396,-0.2381,-0.2357,-0.2334,-0.2336,-0.2342,-0.2345,-0.2349,-0.2354,-0.2355,-0.2303,-0.2303,-0.2303,-0.2579,-0.2548,-0.2544,-0.2507,-0.2491,-0.2449,-0.2433,-0.2406,-0.2379,-0.238,-0.2372,-0.2404,-0.2409,-0.2413,-0.2414,-0.2375,-0.2375,-0.2375,-0.2375,-0.2604,-0.2599,-0.2565,-0.2549,-0.2517,-0.2503,-0.2463,-0.2445,-0.2428,-0.2407,-0.2408,-0.2388,-0.242,-0.242,-0.2378,-0.2377,-0.2377,-0.2377,-0.2377,-0.2641,-0.2633,-0.2615,-0.2588,-0.257,-0.2532,-0.2517,-0.2488,-0.2461,-0.2462,-0.245,-0.245,-0.2446,-0.2458,-0.2458,-0.2459,-0.2459,-0.2459,-0.2459,-0.2685,-0.2664,-0.2656,-0.2625,-0.2611,-0.2588,-0.2547,-0.2532,-0.2508,-0.2488,-0.2488,-0.2462,-0.2428,-0.2421,-0.246,-0.246,-0.246,-0.246,-0.246,-0.2723,-0.271,-0.2697,-0.2683,-0.2645,-0.263,-0.2594,-0.2566,-0.2549,-0.2543,-0.2517,-0.2497,-0.2483,-0.2479,-0.2473,-0.2523,-0.2523,-0.2523,-0.2523,-0.2754,-0.2745,-0.2725,-0.2705,-0.2681,-0.2648,-0.2634,-0.2603,-0.2568,-0.2556,-0.2544,-0.2533,-0.253,-0.2518,-0.2514,-0.2507,-0.2565,-0.2565,-0.2565,-0.2776,-0.2763,-0.2757,-0.2724,-0.2693,-0.2667,-0.2653,-0.2631,-0.2589,-0.2566,-0.2546,-0.2544,-0.2526,-0.2521,-0.2499,-0.2492,-0.2479,0,0]},{"header":{"parameterUnit":"m.s-1","parameterCategory":1,"la1":30.2992,"la2":30.254,"lo1":-89.0895,"lo2":-89.0443,"dy":0.0025,"dx":0.0025,"nx":19,"ny":19,"refTime":"2026-05-10T21:00:00:Z","depth":0,"parameterNumber":3,"parameterNumberName":"V-component_of_WINDS"},"data":[0,0,0,0.2651,0.2651,0.2632,0.2632,0.2614,0.2614,0,0,0,0,0,0,0,0,0,0,0,0.2661,0.2661,0.2651,0.2651,0.2632,0.2632,0.2614,0.2614,0,0,0,0,0,0,0,0,0,0,0,0.2661,0.2661,0.2661,0.2651,0.2632,0.2632,0.2614,0.2626,0,0,0,0,0,0,0,0,0,0,0.2643,0.2657,0.2661,0.2661,0.2651,0.2632,0.2632,0.2626,0.2625,0.2625,0,0.2627,0,0.262,0.2613,0.2613,0,0,0,0.2648,0.2658,0.2649,0.2661,0.2651,0.2633,0.264,0.2626,0.2624,0.2623,0.2626,0.2626,0.262,0.2613,0.2613,0.2622,0.2622,0,0,0.2649,0.266,0.265,0.2648,0.2652,0.2641,0.2639,0.2625,0.2629,0.2626,0.2625,0.2619,0.2613,0.2613,0.2621,0.2622,0,0,0,0.2654,0.2661,0.2652,0.2649,0.2645,0.264,0.2639,0.2629,0.2625,0.2625,0.2619,0.2613,0.2613,0.2621,0.2622,0.264,0,0,0,0.2654,0.2664,0.2653,0.266,0.2646,0.2637,0.2644,0.2626,0.2624,0.2619,0.2613,0.2613,0.2621,0.2621,0.2639,0.2647,0,0,0,0.2661,0.2665,0.2663,0.266,0.2653,0.2637,0.2632,0.2626,0.2621,0.2613,0.2613,0.2621,0.2621,0.2639,0.2646,0.2651,0,0,0,0.2671,0.2682,0.2664,0.2674,0.2653,0.2649,0.2632,0.2629,0.2625,0.2613,0.2621,0.2622,0.2638,0.2645,0.265,0.2657,0.2661,0,0,0.2692,0.2685,0.269,0.2673,0.2675,0.2651,0.2656,0.2642,0.2631,0.2625,0.2625,0.264,0.2646,0.2651,0.2682,0.2685,0,0,0,0.27,0.2704,0.2702,0.2697,0.2686,0.2676,0.2659,0.2653,0.2647,0.2631,0.2643,0.2647,0.2649,0.2652,0.2654,0.2655,0.2624,0.2624,0.2623,0.2745,0.2729,0.2735,0.2717,0.2712,0.2694,0.2688,0.2677,0.2664,0.2667,0.2665,0.2686,0.2689,0.2691,0.2692,0.2668,0.2668,0.2668,0.2668,0.2772,0.2773,0.2753,0.2751,0.2734,0.2732,0.2714,0.2704,0.2699,0.2687,0.2688,0.2675,0.2695,0.2695,0.267,0.2669,0.2669,0.2669,0.2669,0.2798,0.2796,0.2788,0.2777,0.2771,0.2752,0.2747,0.2732,0.2718,0.2719,0.2714,0.2713,0.271,0.2718,0.2718,0.2718,0.2718,0.2718,0.2718,0.2828,0.2818,0.2816,0.2802,0.2796,0.2785,0.2765,0.2758,0.2746,0.2736,0.2736,0.2721,0.2701,0.2695,0.2719,0.2719,0.2719,0.2719,0.2719,0.2858,0.2848,0.2845,0.2838,0.2819,0.2812,0.2793,0.278,0.2772,0.2769,0.2754,0.2742,0.2734,0.2732,0.2727,0.2758,0.2758,0.2758,0.2758,0.2879,0.2873,0.2865,0.2854,0.2843,0.2824,0.2818,0.2802,0.2783,0.2777,0.277,0.2763,0.2761,0.2755,0.2752,0.2747,0.2783,0.2783,0.2783,0.2895,0.2887,0.2886,0.2867,0.285,0.2836,0.283,0.2818,0.2795,0.2783,0.2771,0.277,0.2758,0.2755,0.2743,0.2739,0.2729,0,0]}]]